Regional Weather Roundup
Issued by NWS

Home | Current Version | Previous Version | Text Only | Print | Product List | Glossary Off
Versions: 1 2 3 4 5 6 7 8 9 10 11 12 13 14 15 16 17 18 19 20 21 22 23 24 25 26 27 28 29 30 31 32 33 34 35 36 37 38 39 40 41 42 43 44 45 46 47 48 49 50

290
ASUS45 KBOI 250410
RWRID

IDAHO REGIONAL WEATHER ROUNDUP
NATIONAL WEATHER SERVICE BOISE ID
1000 PM MDT FRI MAR 24 2017

NOTE: "FAIR" INDICATES FEW OR NO CLOUDS BELOW 12000 FEET
WITH NO SIGNIFICANT WEATHER AND/OR OBSTRUCTIONS TO VISIBILITY

IDZ012-014-250500-
SOUTHWEST IDAHO


CITY           SKY/WX    TMP DP  RH WIND       PRES   REMARKS
BOISE          CLOUDY    46  42  86 E6        30.05R
CALDWELL       CLOUDY    45  43  93 E7        30.04R
MOUNTAIN HOME  CLOUDY    45  45 100 N8        30.05R
$$

IDZ016-017-250500-
SOUTHCENTRAL IDAHO


CITY           SKY/WX    TMP DP  RH WIND       PRES   REMARKS
BURLEY         LGT RAIN  46  43  89 W9        30.05R
JEROME         RAIN      44  43  96 SE7       30.06R
TWIN FALLS     LGT RAIN  44  42  93 S3        30.07R FOG
$$

IDZ019>023-250500-
SOUTHEAST IDAHO


CITY           SKY/WX    TMP DP  RH WIND       PRES   REMARKS
IDAHO FALLS    CLOUDY    47  32  56 S8        30.04S
POCATELLO      CLOUDY    50  31  48 S10       30.05R
REXBURG        CLOUDY    47  30  51 S9G20     30.04S
$$

IDZ006-010-011-018-031-032-250500-
CENTRAL IDAHO MOUNTAINS


CITY           SKY/WX    TMP DP  RH WIND       PRES   REMARKS
MCCALL         CLOUDY    35  32  88 CALM      29.98R
HAILEY         LGT RAIN  36  36 100 NW5       30.06F WCI  32
STANLEY          N/A     35  33  92 S6        29.99R WCI  30
SALMON         CLOUDY    48  32  53 SW7       29.92R
CHALLIS        CLOUDY    43  34  70 S10       29.96R
$$

IDZ002-004-006-007-026-250500-
NORTHERN IDAHO


CITY           SKY/WX    TMP DP  RH WIND       PRES   REMARKS
LEWISTON       MOCLDY    47  39  74 S10       29.98R
LOWELL           N/A     43  41  93 N3        30.00R
COEUR D`ALENE  CLOUDY    42  40  92 SW8       29.94R
MULLAN PASS    LGT SNOW  29  29 100 SW8G17    29.88R FOG     WCI  21
$$




USA.gov is the U.S. government's official web portal to all federal, state and local government web resources and services.